Location: Unspecified
(43.4680°N, 87.1740°E)
Time: 20:30:13
(UTC+00:00)

Cosmos 1627 Rocket - Pass Details

Date: 17 April 2021
Orbit: 950 x 1004 km, 82.9° (Epoch: 12 May)

Event Time Altitude Azimuth Distance (km) Brightness Sun altitude
Rises 14:11:54 0° 354° (N) 3,635 8.0 -13.4°
Reaches altitude 10° 14:14:25 10° 357° (N) 2,687 7.3 -13.8°
Maximum altitude 14:20:32 70° 80° (E) 1,018 4.4 -14.8°
Enters shadow 14:26:09 13° 164° (SSE) 2,501 6.2 -15.6°
